#timestamp,LO_Frequency,Hit,StdDev 
1599397215.2,286046999.5,N
1599397235.1,286046996.6,N
1599397236.0,286046996.6,N
1599397255.8,286047000.0,N
1599397275.6,286047002.5,N
1599397295.5,286047001.8,N
1599397315.3,286047004.2,N
1599397335.2,286047002.6,N
1599397355.9,286047000.2,N
1599397375.7,286047000.7,N
1599397395.6,286046998.2,N
1599397415.4,286046999.9,N
1599397435.2,286047002.2,N
1599397455.1,286047000.8,N
1599397456.0,286047000.8,N
1599397475.8,286047000.5,N
1599397495.7,286046999.3,N
1599397515.5,286047001.6,N
1599397535.3,286047001.4,N
1599397555.2,286047000.5,N
1599397575.0,286046998.4,N
1599397575.9,286046998.4,N
1599397595.8,286046999.7,N
1599397615.6,286047000.2,N
1599397635.4,286046998.6,N
1599397655.3,286046996.6,N
1599397675.1,286047001.1,N
1599397695.9,286047000.1,N
1599397715.7,286046998.5,N
1599397735.5,286046999.2,N
1599397755.4,286046997.2,N
1599397775.2,286046996.7,N
1599397795.0,286047001.2,N
1599397795.9,286047001.2,N
1599397815.8,286046999.6,N
1599397835.6,286046998.5,N
1599397855.5,286047000.4,N
1599397875.3,286046999.9,N
1599397895.1,286047002.5,N
1599397915.9,286047006.0,Y
1599397935.7,286047006.0,P
1599397955.6,286047003.4,N
1599397975.4,286047005.7,N
1599397995.2,286047004.2,N
1599398015.1,286047007.0,Y
1599398016.0,286047007.0,P
1599398035.8,286047002.3,N
1599398055.6,286047000.3,N
1599398075.5,286047001.6,N
1599398095.3,286047001.3,N
1599398115.2,286047002.9,N
1599398135.9,286047005.3,N
1599398155.7,286047001.3,N
1599398175.6,286047003.5,N
1599398195.4,286047003.0,N
1599398215.2,286047004.7,N
1599398235.1,286047007.4,Y
1599398236.0,286047007.4,P
1599398255.8,286047001.5,N
1599398275.7,286047000.6,N
1599398295.5,286046996.8,N
1599398315.3,286046996.1,N
1599398335.2,286046994.9,N
1599398355.0,286046993.7,N
1599398355.9,286046993.7,N
1599398375.8,286046991.8,N
1599398395.6,286046994.5,N
1599398415.4,286046995.7,N
1599398435.3,286046996.5,N
1599398455.1,286046999.1,N
1599398475.8,286047001.8,N
1599398495.7,286046999.2,N
1599398515.5,286046999.0,N
1599398535.4,286047000.2,N
1599398555.2,286047001.8,N
1599398575.0,286047002.5,N
1599398575.9,286047002.5,N
1599398595.8,286047003.4,N
1599398615.6,286047005.1,N
1599398635.4,286047005.9,N
1599398655.3,286047006.4,N
1599398675.1,286047008.9,N
1599398695.9,286047008.1,N
1599398715.7,286047008.4,N
1599398735.5,286047009.2,N
1599398755.4,286047009.5,N
1599398775.2,286047013.1,N
1599398795.1,286047016.7,N
1599398796.0,286047016.7,N
1599398815.8,286047013.2,N
1599398835.6,286047011.8,N
1599398855.5,286047011.5,N
1599398875.3,286047011.8,N
1599398895.1,286047010.0,N
1599398915.9,286047009.5,N
1599398935.7,286047012.1,N
1599398955.6,286047009.7,N
1599398975.4,286047010.9,N
1599398995.2,286047011.8,N
1599399015.1,286047010.9,N
1599399016.0,286047010.9,N
1599399035.8,286047017.2,Y
1599399055.7,286047007.3,P
1599399075.5,286047005.5,P
1599399095.3,286047003.5,N
1599399115.2,286047005.2,N
1599399135.0,286047004.7,N
1599399135.9,286047004.7,N
1599399155.8,286047006.1,Y
1599399175.6,286047000.6,P
1599399195.4,286046999.7,N
1599399215.3,286047000.5,N
1599399235.1,286046999.7,N
1599399255.8,286047001.9,N
1599399275.7,286047004.8,N
1599399295.5,286047005.8,N
1599399315.4,286047005.7,N
1599399335.2,286047007.4,N
1599399355.0,286047004.8,N
1599399355.9,286047004.8,N
1599399375.8,286047008.5,Y
1599399395.6,286047005.1,P
1599399415.4,286047003.4,P
1599399435.3,286047004.2,P
1599399455.1,286047001.7,N
1599399475.9,286047003.3,N
1599399495.7,286047008.7,Y
1599399515.5,286047005.3,P
1599399535.4,286047003.5,P
1599399555.2,286047003.0,P
1599399575.1,286047003.2,Y
1599399576.0,286047003.2,P
1599399595.8,286046998.7,P
1599399615.6,286046999.9,N
1599399635.5,286046996.5,N
1599399655.3,286046997.4,N
1599399675.1,286046997.9,N
1599399695.9,286046999.0,N
1599399715.7,286046998.2,N
1599399735.6,286047002.5,N
1599399755.4,286047000.1,N
1599399775.2,286046999.8,N
1599399795.1,286047001.0,N
1599399796.0,286047001.0,N
1599399815.8,286047000.0,N
1599399835.6,286046999.6,N
1599399855.5,286046996.8,N
1599399875.3,286046997.4,N
1599399895.2,286046993.5,Y
1599399915.0,286046993.6,P
1599399915.9,286046993.6,N
1599399935.7,286046995.5,N
1599399955.6,286046992.4,Y
1599399975.4,286046998.3,P
1599399995.3,286047000.0,N
1599400015.1,286046998.3,N
1599400035.8,286047001.5,N
1599400055.7,286047004.0,N
1599400075.5,286047003.8,N
1599400095.4,286047005.0,N
1599400115.2,286047007.3,N
1599400135.0,286047008.0,N
1599400135.9,286047008.0,N
1599400155.8,286047009.0,N
1599400175.6,286047006.8,N
1599400195.4,286047005.1,N
1599400215.3,286047004.9,N
1599400235.1,286047002.1,N
1599400255.9,286046999.7,N
1599400275.7,286047002.1,N
1599400295.5,286047002.3,N
1599400315.4,286047001.6,N
1599400335.2,286047004.7,N
1599400355.0,286047005.3,N
1599400355.9,286047005.3,N
1599400375.8,286047005.1,N
1599400395.6,286047010.1,Y
1599400415.5,286047005.0,P
1599400435.3,286047004.9,P
1599400455.1,286047006.8,P
1599400475.9,286047005.5,Y
1599400495.7,286046996.9,P
1599400515.6,286046996.9,N
1599400535.4,286046997.3,N
1599400555.2,286046996.6,N
1599400575.1,286046999.5,N
1599400576.0,286046999.5,N
1599400595.8,286046997.5,N
1599400615.7,286046999.2,N
1599400635.5,286046997.7,N
1599400655.3,286047000.7,N
1599400675.2,286047002.8,N
1599400695.9,286047002.6,N
1599400715.7,286047000.0,N
1599400735.6,286046998.7,N
1599400755.4,286047002.1,N
1599400775.3,286047003.2,N
1599400795.1,286047003.9,N
1599400796.0,286047003.9,N
